Location: Malvern Link
(52.1333°N, 2.3000°W)
Time: 14:27:27
(UTC+00:00)

SO-50 - Pass Details

Date: 07 July 2022
Orbit: 585 x 698 km, 64.6° (Epoch: 11 August)

Event Time Altitude Azimuth Distance (km) Brightness Sun altitude
Exits shadow 22:11:26 14° 166° (SSE) 1,830 ? -10.7°
Maximum altitude 22:14:33 26° 116° (ESE) 1,310 ? -10.9°
Drops below altitude 10° 22:18:33 10° 61° (ENE) 2,131 ? -11.2°
Sets 22:21:12 0° 49° (NE) 3,066 ? -11.4°
